Regional Weather Roundup
Issued by NWS Sioux Falls, SD

Home | Current Version | Previous Version | Text Only | Print | Product List | Glossary Off
Versions: 1 2 3 4 5 6 7 8 9 10 11 12 13 14 15 16 17 18 19 20 21 22 23 24 25 26 27 28 29 30 31 32 33 34 35 36 37 38 39 40 41 42 43 44 45 46 47 48 49 50

000
ASUS43 KFSD 271302
RWRFSD

WEATHER ROUNDUP FOR SE SOUTH DAKOTA/SW MINNESOTA/NW IOWA
NATIONAL WEATHER SERVICE SIOUX FALLS SD
800 AM CDT THU AUG 27 2015

NOTE: "FAIR" INDICATES FEW OR NO CLOUDS BELOW 12,000 FEET WITH NO
SIGNIFICANT WEATHER AND OR OBSTRUCTIONS TO VISIBILITY.


SDZ038>040-050-052>070-271400-
SOUTHEAST SOUTH DAKOTA

CITY           SKY/WX    TMP DP  RH WIND       PRES   REMARKS
BROOKINGS      CLOUDY    63  57  82 S10       30.06F
CHAMBERLAIN    CLOUDY    65  65  99 SE12      29.93F
HURON          CLOUDY    65  63  93 E7        29.93R
MADISON        FAIR      63  63 100 SE10      30.02F
MITCHELL       CLOUDY    67  64  90 E7        29.91R
SIOUX FALLS    TSTM      64  61  90 S7        30.05F
WINNER         FAIR      70  66  87 E6        29.95R
YANKTON        CLOUDY    63  61  94 E10       29.97S
$$

MNZ071-072-080-081-089-090-097-098-271400-
SOUTHWEST MINNESOTA

CITY           SKY/WX    TMP DP  RH WIND       PRES   REMARKS
FAIRMONT       CLOUDY    57  52  82 S7        30.09S
JACKSON        CLOUDY    59  55  88 CALM      30.11R
LUVERNE        CLOUDY    61  57  88 CALM      30.09S
MARSHALL       CLOUDY    61  54  77 SE7       30.04F
MONTEVIDEO     CLOUDY    61  57  88 S7        30.04F
PIPESTONE      CLOUDY    61  59  94 S5        30.09R
REDWOOD FALLS  CLOUDY    59  55  87 SE6       30.06S
TRACY          CLOUDY    63  58  86 S7        30.05F
WINDOM         CLOUDY    61  55  82 SE5       30.08S
WORTHINGTON    CLOUDY    61  54  77 S5        30.10R
$$

IAZ001>003-012>014-020>022-031-032-NEZ013-014-SDZ071-271400-
NORTHWEST IOWA

CITY           SKY/WX    TMP DP  RH WIND       PRES   REMARKS
DENISON        CLOUDY    63  55  77 S5        30.06R
ESTHERVILLE    CLOUDY    56  54  93 SE3       30.10R
LE MARS        CLOUDY    63  61  94 NW12G21   30.09R
SIOUX CITY     TSTM      63  59  87 CALM      30.04R
SPENCER        CLOUDY    60  54  80 S6        30.08R
$$

ABBREVIATIONS USED IN REMARKS
   TC - TEMPERATURE IN CELSIUS
  WCI - WIND CHILL INDEX
   HX - HEAT INDEX
  VSB - VISIBILITY




USA.gov is the U.S. government's official web portal to all federal, state and local government web resources and services.